| time (UTC) | temp F | wind direction | speed MPH | gust MPH | rain 1hr in | rain 24hr in | rain mn in | humidity % | barometer mb |
| 20260902132705 | 65 | 99 | 1.0 | 3.0 | 0.00 | 0.88 | 0.01 | 85 | 1020.9 |
| 20260902132204 | 64 | 243 | 0.0 | 1.0 | 0.00 | 0.88 | 0.01 | 86 | 1020.9 |
| 20260902131704 | 64 | 243 | 1.0 | 3.0 | 0.00 | 0.88 | 0.01 | 86 | 1020.8 |
| 20260902131203 | 64 | 243 | 0.0 | 2.0 | 0.00 | 0.88 | 0.01 | 86 | 1020.8 |
| 20260902130704 | 64 | 244 | 0.0 | 1.0 | 0.00 | 0.88 | 0.01 | 87 | 1020.6 |
| 20260902130204 | 63 | 244 | 0.0 | 1.0 | 0.00 | 0.88 | 0.01 | 88 | 1020.7 |
| 20260902125704 | 63 | 244 | 0.0 | 1.0 | 0.00 | 0.88 | 0.01 | 87 | 1020.7 |
| 20260902125204 | 63 | 244 | 0.0 | 5.0 | 0.00 | 0.88 | 0.01 | 88 | 1020.8 |
| 20260902124704 | 63 | 97 | 0.0 | 0.0 | 0.00 | 0.89 | 0.01 | 89 | 1020.9 |
| 20260902124204 | 62 | 97 | 0.0 | 2.0 | 0.00 | 0.91 | 0.01 | 89 | 1020.8 |
| 20260902123704 | 62 | 351 | 1.0 | 3.0 | 0.00 | 0.93 | 0.01 | 89 | 1020.8 |
| 20260902122704 | 62 | 14 | 2.0 | 3.0 | 0.00 | 0.96 | 0.01 | 90 | 1020.7 |
| 20260902122204 | 62 | 187 | 1.0 | 2.0 | 0.00 | 0.96 | 0.01 | 90 | 1020.6 |
| 20260902121706 | 62 | 207 | 1.0 | 3.0 | 0.00 | 0.96 | 0.01 | 90 | 1020.5 |
| 20260902121204 | 62 | 183 | 0.0 | 1.0 | 0.00 | 0.96 | 0.01 | 90 | 1020.4 |
| 20260902120706 | 62 | 183 | 0.0 | 2.0 | 0.00 | 0.97 | 0.01 | 90 | 1020.3 |
| 20260902120204 | 62 | 193 | 1.0 | 3.0 | 0.00 | 0.97 | 0.01 | 91 | 1020.4 |
| 20260902115704 | 62 | 116 | 0.0 | 0.0 | 0.00 | 0.97 | 0.01 | 91 | 1020.3 |
| 20260902115204 | 62 | 116 | 0.0 | 0.0 | 0.00 | 0.97 | 0.01 | 91 | 1020.4 |
| 20260902114703 | 62 | 116 | 0.0 | 0.0 | 0.00 | 0.97 | 0.01 | 91 | 1020.4 |
| 20260902113704 | 62 | 116 | 0.0 | 0.0 | 0.00 | 0.97 | 0.01 | 91 | 1020.5 |
| 20260902113204 | 62 | 116 | 0.0 | 0.0 | 0.00 | 0.97 | 0.01 | 91 | 1020.6 |
| 20260902112704 | 62 | 116 | 0.0 | 0.0 | 0.00 | 0.97 | 0.01 | 91 | 1020.7 |
| 20260902112205 | 62 | 116 | 0.0 | 0.0 | 0.00 | 0.97 | 0.01 | 91 | 1020.8 |
| 20260902111704 | 62 | 116 | 0.0 | 0.0 | 0.00 | 0.98 | 0.01 | 91 | 1020.9 |
| 20260902111204 | 62 | 116 | 0.0 | 0.0 | 0.00 | 0.98 | 0.01 | 91 | 1020.9 |
| 20260902110704 | 61 | 116 | 0.0 | 0.0 | 0.00 | 0.98 | 0.01 | 91 | 1021.0 |
| 20260902110204 | 61 | 116 | 0.0 | 0.0 | 0.00 | 0.99 | 0.01 | 91 | 1020.9 |
| 20260902105704 | 61 | 116 | 0.0 | 0.0 | 0.00 | 1.00 | 0.01 | 91 | 1020.8 |
| 20260902105204 | 62 | 116 | 0.0 | 0.0 | 0.00 | 1.00 | 0.01 | 91 | 1020.8 |
| 20260902104705 | 62 | 116 | 0.0 | 0.0 | 0.00 | 1.08 | 0.01 | 91 | 1020.7 |
| 20260902104205 | 62 | 116 | 0.0 | 0.0 | 0.00 | 1.10 | 0.01 | 91 | 1020.7 |
| 20260902103704 | 62 | 116 | 0.0 | 0.0 | 0.00 | 1.12 | 0.01 | 91 | 1020.6 |
| 20260902103205 | 62 | 116 | 0.0 | 0.0 | 0.00 | 1.12 | 0.01 | 91 | 1020.5 |
| 20260902102704 | 62 | 116 | 0.0 | 0.0 | 0.00 | 1.13 | 0.01 | 91 | 1020.5 |
| 20260902101704 | 62 | 116 | 0.0 | 0.0 | 0.00 | 1.14 | 0.01 | 91 | 1020.4 |
| 20260902101204 | 62 | 116 | 0.0 | 0.0 | 0.00 | 1.14 | 0.01 | 91 | 1020.3 |
| 20260902100704 | 62 | 116 | 0.0 | 0.0 | 0.00 | 1.16 | 0.01 | 91 | 1020.2 |
| 20260902100204 | 62 | 116 | 0.0 | 0.0 | 0.00 | 1.17 | 0.01 | 91 | 1020.2 |
| 20260902095704 | 62 | 116 | 0.0 | 0.0 | 0.00 | 1.18 | 0.01 | 91 | 1020.1 |
| 20260902095204 | 62 | 116 | 0.0 | 0.0 | 0.00 | 1.20 | 0.01 | 91 | 1020.0 |
| 20260902094204 | 62 | 116 | 0.0 | 0.0 | 0.00 | 1.21 | 0.01 | 91 | 1020.0 |
| 20260902093704 | 62 | 116 | 0.0 | 0.0 | 0.00 | 1.22 | 0.01 | 91 | 1019.9 |
| 20260902093204 | 62 | 116 | 0.0 | 0.0 | 0.00 | 1.22 | 0.01 | 91 | 1019.9 |
| 20260902092704 | 62 | 116 | 0.0 | 0.0 | 0.00 | 1.22 | 0.01 | 91 | 1019.8 |
| 20260902092204 | 62 | 116 | 0.0 | 0.0 | 0.00 | 1.23 | 0.01 | 91 | 1019.7 |
| 20260902091705 | 62 | 116 | 0.0 | 0.0 | 0.00 | 1.24 | 0.01 | 91 | 1019.6 |
| 20260902091204 | 62 | 116 | 0.0 | 0.0 | 0.00 | 1.24 | 0.01 | 91 | 1019.5 |
| 20260902090705 | 62 | 116 | 0.0 | 0.0 | 0.00 | 1.24 | 0.01 | 91 | 1019.4 |
| 20260902090206 | 62 | 116 | 0.0 | 0.0 | 0.00 | 1.24 | 0.01 | 91 | 1019.4 |
| 20260902085204 | 62 | 116 | 0.0 | 0.0 | 0.00 | 1.24 | 0.01 | 91 | 1019.4 |
| 20260902084704 | 62 | 116 | 0.0 | 0.0 | 0.00 | 1.24 | 0.01 | 91 | 1019.4 |
| 20260902083704 | 62 | 116 | 0.0 | 0.0 | 0.00 | 1.24 | 0.01 | 91 | 1019.4 |
| 20260902083204 | 62 | 116 | 0.0 | 0.0 | 0.00 | 1.24 | 0.01 | 91 | 1019.4 |
| 20260902082204 | 62 | 116 | 0.0 | 0.0 | 0.00 | 1.24 | 0.01 | 91 | 1019.3 |
| 20260902081205 | 63 | 116 | 0.0 | 0.0 | 0.00 | 1.24 | 0.01 | 91 | 1019.4 |
| 20260902080704 | 62 | 116 | 0.0 | 0.0 | 0.00 | 1.24 | 0.01 | 91 | 1019.4 |
| 20260902075704 | 63 | 116 | 0.0 | 0.0 | 0.00 | 1.25 | 0.01 | 91 | 1019.3 |
| 20260902074704 | 63 | 115 | 0.0 | 0.0 | 0.00 | 1.25 | 0.01 | 91 | 1019.1 |
| 20260902074204 | 63 | 115 | 0.0 | 0.0 | 0.00 | 1.25 | 0.01 | 91 | 1019.0 |
| 20260902073705 | 63 | 115 | 0.0 | 0.0 | 0.01 | 1.25 | 0.01 | 91 | 1019.2 |
| 20260902072704 | 63 | 115 | 0.0 | 0.0 | 0.01 | 1.25 | 0.01 | 91 | 1019.3 |
| 20260902072204 | 63 | 115 | 0.0 | 0.0 | 0.01 | 1.25 | 0.01 | 91 | 1019.4 |
| 20260902071705 | 63 | 115 | 0.0 | 0.0 | 0.01 | 1.25 | 0.01 | 91 | 1019.4 |
| 20260902071204 | 63 | 115 | 0.0 | 0.0 | 0.01 | 1.25 | 0.01 | 91 | 1019.4 |
| 20260902070203 | 63 | 115 | 0.0 | 0.0 | 0.01 | 1.25 | 0.01 | 91 | 1019.5 |
| 20260902065704 | 63 | 115 | 0.0 | 0.0 | 0.01 | 1.25 | 0.01 | 91 | 1019.5 |
| 20260902065204 | 63 | 115 | 0.0 | 0.0 | 0.01 | 1.25 | 0.01 | 91 | 1019.6 |
| 20260902064704 | 63 | 115 | 0.0 | 0.0 | 0.01 | 1.25 | 0.01 | 91 | 1019.7 |
| 20260902063704 | 63 | 115 | 0.0 | 0.0 | 0.00 | 1.24 | 0.00 | 90 | 1019.7 |
| 20260902063203 | 63 | 115 | 0.0 | 0.0 | 0.00 | 1.24 | 0.00 | 90 | 1019.7 |
| 20260902062704 | 63 | 115 | 0.0 | 0.0 | 0.00 | 1.24 | 0.00 | 90 | 1019.6 |
| 20260902062204 | 63 | 115 | 0.0 | 0.0 | 0.00 | 1.24 | 0.00 | 90 | 1019.6 |
| 20260902061704 | 63 | 115 | 0.0 | 0.0 | 0.00 | 1.24 | 0.00 | 90 | 1019.6 |
| 20260902061204 | 63 | 115 | 0.0 | 0.0 | 0.00 | 1.24 | 0.00 | 90 | 1019.6 |
| 20260902060204 | 63 | 115 | 0.0 | 0.0 | 0.00 | 1.24 | 0.00 | 90 | 1019.5 |
| 20260902055703 | 63 | 115 | 0.0 | 0.0 | 0.00 | 1.24 | 0.00 | 90 | 1019.5 |
| 20260902055205 | 63 | 115 | 0.0 | 0.0 | 0.00 | 1.24 | 0.00 | 90 | 1019.4 |
| 20260902054704 | 62 | 115 | 0.0 | 0.0 | 0.00 | 1.24 | 0.00 | 90 | 1019.4 |
| 20260902054204 | 63 | 115 | 0.0 | 0.0 | 0.00 | 1.24 | 0.00 | 90 | 1019.4 |
| 20260902053704 | 62 | 115 | 0.0 | 2.0 | 0.00 | 1.24 | 0.00 | 90 | 1019.3 |
| 20260902053204 | 63 | 114 | 0.0 | 1.0 | 0.00 | 1.24 | 0.00 | 90 | 1019.1 |
| 20260902051704 | 63 | 113 | 0.0 | 0.0 | 0.00 | 1.24 | 0.00 | 90 | 1018.9 |
| 20260902050704 | 63 | 113 | 0.0 | 0.0 | 0.00 | 1.24 | 0.00 | 90 | 1018.9 |
| 20260902050205 | 62 | 113 | 0.0 | 0.0 | 0.00 | 1.24 | 0.00 | 90 | 1018.9 |
| 20260902045704 | 62 | 113 | 0.0 | 0.0 | 0.00 | 1.24 | 0.00 | 90 | 1018.9 |
| 20260902045204 | 62 | 113 | 0.0 | 0.0 | 0.00 | 1.24 | 0.00 | 90 | 1018.8 |
| 20260902044704 | 62 | 113 | 0.0 | 0.0 | 0.00 | 1.24 | 0.00 | 90 | 1018.9 |
| 20260902044204 | 63 | 113 | 0.0 | 0.0 | 0.00 | 1.24 | 0.00 | 90 | 1019.0 |
| 20260902043704 | 62 | 113 | 0.0 | 0.0 | 0.00 | 1.24 | 0.00 | 90 | 1019.0 |
| 20260902042704 | 62 | 113 | 0.0 | 0.0 | 0.00 | 1.24 | 0.00 | 90 | 1018.8 |
| 20260902042204 | 62 | 113 | 0.0 | 0.0 | 0.00 | 1.24 | 0.00 | 90 | 1018.9 |
| 20260902041704 | 62 | 113 | 0.0 | 0.0 | 0.00 | 1.24 | 0.00 | 90 | 1018.9 |
| 20260902041204 | 62 | 113 | 0.0 | 0.0 | 0.00 | 1.24 | 0.00 | 91 | 1018.8 |
| 20260902040704 | 62 | 113 | 0.0 | 1.0 | 0.00 | 1.24 | 0.00 | 90 | 1018.6 |
| 20260902034704 | 62 | 113 | 0.0 | 1.0 | 0.00 | 1.24 | 1.24 | 90 | 1018.4 |
| 20260902034204 | 62 | 113 | 0.0 | 2.0 | 0.00 | 1.24 | 1.24 | 90 | 1018.4 |
| 20260902033203 | 62 | 112 | 0.0 | 0.0 | 0.00 | 1.24 | 1.24 | 91 | 1018.2 |
| 20260902032704 | 62 | 112 | 0.0 | 0.0 | 0.00 | 1.24 | 1.24 | 91 | 1018.2 |
| 20260902032203 | 62 | 112 | 0.0 | 0.0 | 0.00 | 1.24 | 1.24 | 90 | 1018.4 |
| 20260902031204 | 62 | 112 | 0.0 | 1.0 | 0.00 | 1.24 | 1.24 | 90 | 1018.3 |
| 20260902030704 | 62 | 112 | 0.0 | 1.0 | 0.00 | 1.24 | 1.24 | 90 | 1018.4 |
| 20260902030204 | 62 | 112 | 0.0 | 0.0 | 0.00 | 1.24 | 1.24 | 91 | 1018.2 |
| 20260902025204 | 62 | 112 | 0.0 | 3.0 | 0.00 | 1.24 | 1.24 | 90 | 1018.1 |
| 20260902024704 | 62 | 65 | 0.0 | 0.0 | 0.00 | 1.24 | 1.24 | 90 | 1018.1 |
| 20260902024204 | 62 | 65 | 0.0 | 1.0 | 0.00 | 1.24 | 1.24 | 90 | 1018.1 |
| 20260902023705 | 62 | 64 | 0.0 | 0.0 | 0.00 | 1.24 | 1.24 | 91 | 1018.2 |
| 20260902023204 | 62 | 64 | 0.0 | 0.0 | 0.00 | 1.24 | 1.24 | 90 | 1018.1 |
| 20260902022204 | 62 | 64 | 1.0 | 3.0 | 0.00 | 1.24 | 1.24 | 91 | 1018.1 |
| 20260902021704 | 62 | 106 | 0.0 | 0.0 | 0.00 | 1.24 | 1.24 | 91 | 1018.1 |
| 20260902021204 | 62 | 106 | 0.0 | 0.0 | 0.00 | 1.24 | 1.24 | 91 | 1018.2 |
| 20260902020704 | 62 | 106 | 0.0 | 0.0 | 0.00 | 1.24 | 1.24 | 91 | 1018.1 |
| 20260902020204 | 62 | 106 | 0.0 | 1.0 | 0.00 | 1.24 | 1.24 | 91 | 1018.2 |
| 20260902015704 | 62 | 104 | 0.0 | 1.0 | 0.00 | 1.24 | 1.24 | 91 | 1018.1 |
| 20260902015204 | 62 | 104 | 0.0 | 0.0 | 0.00 | 1.24 | 1.24 | 91 | 1018.2 |
| 20260902014704 | 62 | 104 | 0.0 | 0.0 | 0.00 | 1.24 | 1.24 | 91 | 1018.2 |
| 20260902014204 | 62 | 104 | 0.0 | 1.0 | 0.00 | 1.24 | 1.24 | 91 | 1018.2 |
| 20260902013205 | 63 | 105 | 0.0 | 2.0 | 0.00 | 1.24 | 1.24 | 91 | 1017.9 |
| 20260902012704 | 62 | 105 | 1.0 | 2.0 | 0.00 | 1.24 | 1.24 | 91 | 1017.9 |
| 20260902012204 | 62 | 105 | 0.0 | 1.0 | 0.00 | 1.24 | 1.24 | 91 | 1017.9 |
| 20260902011704 | 63 | 105 | 0.0 | 0.0 | 0.00 | 1.24 | 1.24 | 91 | 1017.9 |
| 20260902010205 | 63 | 105 | 0.0 | 0.0 | 0.00 | 1.24 | 1.24 | 91 | 1017.7 |
| 20260902005704 | 63 | 105 | 0.0 | 0.0 | 0.00 | 1.24 | 1.24 | 91 | 1017.5 |
| 20260902004705 | 63 | 105 | 0.0 | 0.0 | 0.00 | 1.24 | 1.24 | 91 | 1017.4 |
| 20260902003205 | 63 | 99 | 0.0 | 1.0 | 0.00 | 1.24 | 1.24 | 91 | 1017.1 |
| 20260902001704 | 63 | 106 | 0.0 | 1.0 | 0.00 | 1.25 | 1.24 | 91 | 1016.9 |
| 20260902001204 | 63 | 106 | 0.0 | 3.0 | 0.00 | 1.25 | 1.24 | 91 | 1016.8 |
| 20260902000704 | 63 | 245 | 0.0 | 1.0 | 0.00 | 1.25 | 1.24 | 91 | 1016.8 |
| 20260902000204 | 64 | 245 | 0.0 | 2.0 | 0.00 | 1.25 | 1.24 | 91 | 1016.7 |
| 20260901235704 | 64 | 245 | 0.0 | 3.0 | 0.00 | 1.25 | 1.24 | 91 | 1016.7 |
| 20260901234704 | 64 | 118 | 0.0 | 1.0 | 0.00 | 1.25 | 1.24 | 91 | 1016.7 |
| 20260901234204 | 64 | 118 | 1.0 | 3.0 | 0.00 | 1.25 | 1.24 | 91 | 1016.8 |
| 20260901233704 | 64 | 203 | 1.0 | 3.0 | 0.00 | 1.25 | 1.24 | 91 | 1016.8 |
| 20260901233204 | 64 | 128 | 0.0 | 1.0 | 0.00 | 1.25 | 1.24 | 91 | 1016.7 |
| 20260901232704 | 64 | 127 | 0.0 | 1.0 | 0.00 | 1.25 | 1.24 | 91 | 1016.4 |
| 20260901231705 | 64 | 126 | 0.0 | 1.0 | 0.00 | 1.25 | 1.24 | 91 | 1016.3 |
| 20260901231205 | 65 | 127 | 0.0 | 2.0 | 0.00 | 1.25 | 1.24 | 91 | 1016.5 |
| 20260901230704 | 65 | 128 | 0.0 | 0.0 | 0.00 | 1.25 | 1.24 | 91 | 1016.6 |
| 20260901230205 | 65 | 128 | 0.0 | 1.0 | 0.00 | 1.25 | 1.24 | 91 | 1016.6 |
| 20260901225704 | 65 | 128 | 0.0 | 1.0 | 0.00 | 1.25 | 1.24 | 91 | 1016.6 |
| 20260901225204 | 66 | 128 | 1.0 | 2.0 | 0.00 | 1.25 | 1.24 | 91 | 1016.5 |
| 20260901224704 | 66 | 128 | 1.0 | 3.0 | 0.00 | 1.25 | 1.24 | 91 | 1016.4 |
| 20260901224204 | 66 | 99 | 0.0 | 1.0 | 0.00 | 1.25 | 1.24 | 91 | 1016.3 |
| 20260901223704 | 66 | 99 | 0.0 | 2.0 | 0.00 | 1.25 | 1.24 | 91 | 1016.4 |
| 20260901223204 | 66 | 93 | 0.0 | 0.0 | 0.00 | 1.25 | 1.24 | 91 | 1016.4 |
| 20260901222703 | 66 | 93 | 0.0 | 1.0 | 0.00 | 1.25 | 1.24 | 91 | 1016.3 |
| 20260901222204 | 67 | 93 | 0.0 | 1.0 | 0.00 | 1.25 | 1.24 | 91 | 1016.3 |
| 20260901221704 | 67 | 93 | 0.0 | 2.0 | 0.00 | 1.25 | 1.24 | 91 | 1016.1 |
| 20260901220704 | 67 | 89 | 1.0 | 2.0 | 0.00 | 1.25 | 1.24 | 91 | 1015.8 |
| 20260901220205 | 67 | 59 | 0.0 | 1.0 | 0.00 | 1.25 | 1.24 | 91 | 1015.9 |
| 20260901215704 | 67 | 35 | 0.0 | 1.0 | 0.01 | 1.25 | 1.24 | 91 | 1015.9 |
| 20260901215204 | 68 | 33 | 0.0 | 0.0 | 0.01 | 1.25 | 1.24 | 91 | 1015.8 |
| 20260901214704 | 68 | 33 | 0.0 | 0.0 | 0.01 | 1.25 | 1.24 | 91 | 1015.8 |
| 20260901214204 | 68 | 33 | 0.0 | 0.0 | 0.02 | 1.25 | 1.24 | 91 | 1015.8 |
| 20260901213704 | 68 | 33 | 0.0 | 1.0 | 0.02 | 1.25 | 1.24 | 91 | 1015.7 |
| 20260901213204 | 68 | 25 | 0.0 | 1.0 | 0.02 | 1.25 | 1.24 | 91 | 1015.6 |
| 20260901212704 | 69 | 25 | 0.0 | 1.0 | 0.02 | 1.25 | 1.24 | 91 | 1015.6 |
| 20260901212204 | 69 | 25 | 0.0 | 1.0 | 0.02 | 1.25 | 1.24 | 91 | 1015.6 |
| 20260901211704 | 69 | 25 | 0.0 | 1.0 | 0.02 | 1.25 | 1.24 | 91 | 1015.6 |
| 20260901211204 | 69 | 25 | 0.0 | 0.0 | 0.02 | 1.25 | 1.24 | 91 | 1015.5 |
| 20260901210704 | 69 | 25 | 0.0 | 0.0 | 0.02 | 1.25 | 1.24 | 91 | 1015.5 |
| 20260901210205 | 69 | 25 | 0.0 | 1.0 | 0.02 | 1.25 | 1.24 | 91 | 1015.5 |
| 20260901205704 | 69 | 25 | 0.0 | 0.0 | 0.01 | 1.24 | 1.23 | 91 | 1015.4 |
| 20260901204705 | 70 | 25 | 0.0 | 0.0 | 0.01 | 1.24 | 1.23 | 91 | 1015.3 |
| 20260901204205 | 70 | 25 | 0.0 | 1.0 | 0.00 | 1.23 | 1.22 | 91 | 1015.2 |
| 20260901203204 | 70 | 25 | 1.0 | 3.0 | 0.00 | 1.23 | 1.22 | 91 | 1015.2 |
| 20260901202204 | 71 | 18 | 0.0 | 1.0 | 0.00 | 1.23 | 1.22 | 91 | 1015.1 |
| 20260901201204 | 70 | 18 | 0.0 | 0.0 | 0.00 | 1.23 | 1.22 | 91 | 1015.0 |
| 20260901200204 | 70 | 18 | 0.0 | 0.0 | 0.01 | 1.23 | 1.22 | 91 | 1015.0 |
| 20260901195704 | 70 | 18 | 0.0 | 0.0 | 0.01 | 1.23 | 1.22 | 91 | 1015.1 |
| 20260901195205 | 70 | 18 | 0.0 | 1.0 | 0.02 | 1.23 | 1.22 | 91 | 1015.0 |
| 20260901194704 | 70 | 18 | 0.0 | 1.0 | 0.04 | 1.23 | 1.22 | 91 | 1015.0 |
| 20260901194204 | 70 | 18 | 0.0 | 1.0 | 0.07 | 1.23 | 1.22 | 91 | 1015.0 |
| 20260901193705 | 70 | 18 | 0.0 | 0.0 | 0.11 | 1.23 | 1.22 | 91 | 1014.9 |
| 20260901193204 | 70 | 18 | 0.0 | 1.0 | 0.11 | 1.23 | 1.22 | 91 | 1014.9 |
| 20260901192704 | 70 | 18 | 0.0 | 0.0 | 0.11 | 1.23 | 1.22 | 91 | 1014.8 |
| 20260901192204 | 70 | 18 | 0.0 | 2.0 | 0.11 | 1.23 | 1.22 | 91 | 1014.8 |
| 20260901191705 | 70 | 18 | 0.0 | 0.0 | 0.11 | 1.23 | 1.22 | 91 | 1014.8 |
| 20260901191205 | 70 | 18 | 0.0 | 2.0 | 0.11 | 1.23 | 1.22 | 91 | 1014.8 |
| 20260901190704 | 70 | 18 | 0.0 | 1.0 | 0.11 | 1.23 | 1.22 | 91 | 1014.8 |
| 20260901190204 | 70 | 18 | 0.0 | 1.0 | 0.10 | 1.22 | 1.21 | 91 | 1014.8 |
| 20260901185704 | 70 | 18 | 0.0 | 0.0 | 0.10 | 1.22 | 1.21 | 91 | 1014.8 |
| 20260901185203 | 70 | 18 | 0.0 | 0.0 | 0.11 | 1.21 | 1.20 | 91 | 1014.9 |
| 20260901184705 | 70 | 18 | 0.0 | 0.0 | 0.12 | 1.19 | 1.18 | 91 | 1014.8 |
| 20260901184204 | 70 | 18 | 0.0 | 0.0 | 0.13 | 1.16 | 1.15 | 91 | 1014.9 |
| 20260901183704 | 70 | 18 | 1.0 | 2.0 | 0.10 | 1.12 | 1.11 | 91 | 1014.9 |
| 20260901183205 | 70 | 18 | 0.0 | 1.0 | 0.11 | 1.12 | 1.11 | 91 | 1015.0 |
| 20260901182205 | 70 | 18 | 0.0 | 0.0 | 0.35 | 1.12 | 1.11 | 91 | 1014.8 |
| 20260901180711 | 70 | 18 | 1.0 | 2.0 | 0.56 | 1.12 | 1.11 | 91 | 1014.8 |
| 20260901180203 | 70 | 18 | 0.0 | 0.0 | 0.65 | 1.12 | 1.11 | 91 | 1014.8 |
| 20260901175204 | 70 | 18 | 0.0 | 0.0 | 0.66 | 1.07 | 1.06 | 91 | 1014.7 |
| 20260901174704 | 70 | 18 | 0.0 | 1.0 | 0.63 | 1.04 | 1.03 | 91 | 1014.6 |
| 20260901174204 | 70 | 18 | 1.0 | 2.0 | 0.61 | 1.02 | 1.01 | 91 | 1014.7 |
| 20260901173704 | 70 | 18 | 1.0 | 2.0 | 0.61 | 1.02 | 1.01 | 91 | 1014.7 |
| 20260901173204 | 70 | 18 | 0.0 | 3.0 | 0.55 | 0.96 | 0.95 | 91 | 1014.6 |
| 20260901172704 | 70 | 14 | 1.0 | 3.0 | 0.41 | 0.82 | 0.81 | 91 | 1014.8 |
| 20260901172205 | 70 | 128 | 1.0 | 3.0 | 0.36 | 0.77 | 0.76 | 91 | 1014.6 |
| 20260901171204 | 70 | 130 | 1.0 | 2.0 | 0.20 | 0.61 | 0.60 | 91 | 1014.5 |
| 20260901170703 | 70 | 130 | 0.0 | 0.0 | 0.15 | 0.56 | 0.55 | 91 | 1014.5 |
| 20260901170204 | 70 | 130 | 0.0 | 2.0 | 0.06 | 0.47 | 0.46 | 91 | 1014.6 |
| 20260901165704 | 70 | 130 | 0.0 | 2.0 | 0.02 | 0.43 | 0.42 | 91 | 1014.6 |
| 20260901165204 | 70 | 130 | 2.0 | 3.0 | 0.00 | 0.41 | 0.40 | 91 | 1014.5 |
| 20260901164704 | 70 | 131 | 0.0 | 1.0 | 0.00 | 0.41 | 0.40 | 91 | 1014.3 |
| 20260901164203 | 70 | 131 | 0.0 | 1.0 | 0.00 | 0.41 | 0.40 | 91 | 1014.3 |
| 20260901163703 | 69 | 131 | 1.0 | 2.0 | 0.00 | 0.41 | 0.40 | 91 | 1014.3 |
| 20260901162703 | 69 | 126 | 1.0 | 3.0 | 0.00 | 0.41 | 0.40 | 91 | 1014.4 |
| 20260901162204 | 69 | 47 | 0.0 | 2.0 | 0.00 | 0.41 | 0.40 | 91 | 1014.5 |
| 20260901161703 | 69 | 38 | 1.0 | 3.0 | 0.00 | 0.41 | 0.40 | 91 | 1014.9 |
| 20260901161204 | 69 | 28 | 2.0 | 3.0 | 0.00 | 0.41 | 0.40 | 91 | 1015.1 |
| 20260901160704 | 69 | 151 | 1.0 | 3.0 | 0.00 | 0.41 | 0.40 | 91 | 1015.0 |
| 20260901160204 | 69 | 156 | 1.0 | 2.0 | 0.00 | 0.41 | 0.40 | 91 | 1014.9 |
| 20260901155703 | 69 | 156 | 0.0 | 0.0 | 0.00 | 0.41 | 0.40 | 91 | 1014.8 |
| 20260901155203 | 69 | 156 | 0.0 | 0.0 | 0.00 | 0.41 | 0.40 | 91 | 1014.9 |
| 20260901154704 | 69 | 156 | 0.0 | 0.0 | 0.00 | 0.41 | 0.40 | 91 | 1014.9 |
| 20260901154204 | 69 | 156 | 0.0 | 0.0 | 0.00 | 0.41 | 0.40 | 91 | 1014.8 |
| 20260901153704 | 69 | 156 | 0.0 | 0.0 | 0.00 | 0.41 | 0.40 | 91 | 1014.7 |
| 20260901153204 | 70 | 162 | 0.0 | 0.0 | 0.00 | 0.41 | 0.40 | 91 | 1014.8 |
| 20260901152704 | 70 | 162 | 0.0 | 0.0 | 0.00 | 0.41 | 0.40 | 91 | 1014.9 |
| 20260901152204 | 70 | 162 | 0.0 | 1.0 | 0.00 | 0.41 | 0.40 | 91 | 1014.7 |
| 20260901151703 | 70 | 162 | 0.0 | 3.0 | 0.00 | 0.41 | 0.40 | 91 | 1014.7 |
| 20260901151203 | 71 | 168 | 0.0 | 2.0 | 0.00 | 0.41 | 0.40 | 91 | 1014.5 |
| 20260901150703 | 70 | 168 | 0.0 | 1.0 | 0.00 | 0.41 | 0.40 | 91 | 1014.6 |
| 20260901150203 | 70 | 220 | 0.0 | 2.0 | 0.00 | 0.41 | 0.40 | 91 | 1014.7 |
| 20260901145703 | 70 | 220 | 0.0 | 2.0 | 0.01 | 0.41 | 0.40 | 91 | 1014.8 |
| 20260901145204 | 70 | 220 | 0.0 | 3.0 | 0.01 | 0.41 | 0.40 | 91 | 1014.9 |
| 20260901143703 | 70 | 184 | 1.0 | 3.0 | 0.02 | 0.41 | 0.40 | 91 | 1015.0 |
| 20260901143205 | 70 | 183 | 0.0 | 0.0 | 0.03 | 0.41 | 0.40 | 91 | 1014.9 |
| 20260901142704 | 69 | 183 | 0.0 | 0.0 | 0.03 | 0.41 | 0.40 | 91 | 1015.0 |
| 20260901141704 | 69 | 183 | 0.0 | 0.0 | 0.03 | 0.41 | 0.40 | 91 | 1015.2 |
| 20260901140704 | 69 | 183 | 0.0 | 0.0 | 0.03 | 0.41 | 0.40 | 91 | 1015.2 |
| 20260901140204 | 69 | 183 | 0.0 | 0.0 | 0.03 | 0.41 | 0.40 | 91 | 1015.3 |
| 20260901135704 | 69 | 183 | 0.0 | 0.0 | 0.02 | 0.40 | 0.39 | 91 | 1015.3 |
| 20260901135203 | 69 | 183 | 0.0 | 0.0 | 0.02 | 0.40 | 0.39 | 91 | 1015.5 |
| 20260901134704 | 69 | 183 | 0.0 | 0.0 | 0.02 | 0.40 | 0.39 | 91 | 1015.5 |
| 20260901134203 | 68 | 183 | 0.0 | 1.0 | 0.02 | 0.39 | 0.38 | 91 | 1015.7 |
| 20260901133704 | 69 | 183 | 0.0 | 2.0 | 0.04 | 0.39 | 0.38 | 91 | 1015.5 |
| 20260901133204 | 69 | 183 | 1.0 | 3.0 | 0.05 | 0.38 | 0.37 | 91 | 1015.6 |